Regional Weather Roundup
Issued by NWS

Home | Current Version | Previous Version | Text Only | Print | Product List | Glossary On
Versions: 1 2 3 4 5 6 7 8 9 10 11 12 13 14 15 16 17 18 19 20 21 22 23 24 25 26 27 28 29 30 31 32 33 34 35 36 37 38 39 40 41 42 43 44 45 46 47 48 49 50
000
ASUS43 KBIS 022320
RWRND

NORTH DAKOTA REGIONAL WEATHER ROUNDUP
NATIONAL WEATHER SERVICE BISMARCK ND
500 PM CST MON MAR 02 2015

NOTE: "FAIR" INDICATES FEW OR NO CLOUDS BELOW 12,000 FEET WITH NO
SIGNIFICANT WEATHER AND/OR OBSTRUCTIONS TO VISIBILITY.


NDZ001>003-009>011-017-030000-
NORTHWEST NORTH DAKOTA

CITY           SKY/WX    TMP DP  RH WIND       PRES   REMARKS
WILLISTON      PTSUNNY   37  19  48 W9        29.72S
MINOT          MOSUNNY   34  20  56 S13       29.71F
MINOT AFB      MOSUNNY   33  24  70 SW6       29.71F
$$

NDZ018>021-031>035-040>046-030000-
SOUTHWEST NORTH DAKOTA

CITY           SKY/WX    TMP DP  RH WIND       PRES   REMARKS
BISMARCK       MOSUNNY   40  24  53 S9        29.75F
DICKINSON      MOSUNNY   43  14  31 W16       29.68F
GARRISON         N/A     36  23  59 SW9       29.70F
HETTINGER ARPT PTSUNNY   44  10  25 W7        29.72F
$$

NDZ004>008-012>016-024-026-027-054-030000-
NORTHEAST NORTH DAKOTA

CITY           SKY/WX    TMP DP  RH WIND       PRES   REMARKS
GRAND FORKS    MOSUNNY   29  17  61 S23G31    29.94F WCI  15
GRND FRKS AFB  SUNNY     29  17  58 S22G32    29.92F WCI  16
DEVILS LAKE    SUNNY     28  19  69 S20G28    29.81F WCI  15
$$

NDZ022-023-025-028>030-036>039-047>053-030000-
SOUTHEAST NORTH DAKOTA

CITY           SKY/WX    TMP DP  RH WIND       PRES   REMARKS
FARGO          CLOUDY    31  16  54 S23G37    29.98F WCI  18
JAMESTOWN      MOSUNNY   31  21  66 S24       29.84F WCI  17
$$



USA.gov is the U.S. government's official web portal to all federal, state and local government web resources and services.